Wind_Speed
71 76 80 86 92 94 99 103 104 102 101 95 91 89 83 77 73 69 64 57 51 43 41 38 40 43 46 57 70 75 76 89 93 96 103 111 116 117 120 123 124 120 117 111 111 106 97
72 78 82 86 92 95 101 104 107 107 102 97 92 88 84 79 76 71 67 62 50 38 31 30 34 38 44 58 72 74 79 88 92 97 103 110 116 119 120 123 124 122 122 119 115 104 98
73 78 83 87 91 95 100 107 110 108 106 98 94 88 83 82 79 74 69 64 51 37 31 25 29 35 41 53 66 76 80 84 91 98 104 109 118 118 118 119 122 124 127 121 115 108 100
74 79 82 88 93 98 102 109 111 114 112 104 100 91 85 82 79 76 72 66 54 47 40 28 22 27 36 49 65 73 83 85 90 97 102 110 117 120 118 118 121 124 126 122 115 111 105
76 79 81 88 93 101 103 109 112 116 115 111 103 95 88 84 82 79 73 67 59 55 48 30 18 19 32 47 61 69 79 85 88 95 101 110 115 123 119 118 118 123 125 120 119 113 110
76 79 83 89 95 102 105 107 112 117 116 112 108 99 93 89 86 84 77 70 63 56 46 31 18 11 26 42 54 66 75 81 86 93 101 105 112 121 118 115 113 113 119 120 119 115 114
75 79 84 89 94 101 103 107 111 115 117 116 111 102 96 92 90 87 81 73 66 58 47 35 20 6 19 33 47 60 69 78 83 87 96 100 103 107 122 123 116 115 118 122 124 120 119
74 79 83 90 95 101 101 106 110 113 117 115 113 104 96 93 90 88 83 76 71 61 47 36 24 9 9 24 39 50 60 69 78 83 91 95 97 109 118 121 117 113 112 113 120 122 122
75 79 83 89 97 99 100 104 106 111 112 115 110 106 97 91 89 87 86 78 72 61 53 38 24 14 6 20 32 46 59 68 75 78 81 86 96 102 106 115 117 113 109 112 114 120 119
74 79 84 89 94 97 98 103 104 107 111 113 110 106 98 91 89 85 83 79 73 65 58 38 25 16 8 12 26 40 56 69 75 78 77 79 90 96 100 103 110 115 117 107 106 112 117
74 77 82 89 92 96 96 98 99 103 108 108 108 105 99 91 87 82 79 77 72 66 57 40 28 17 12 8 18 32 46 57 70 72 69 73 77 88 96 100 102 108 106 105 107 106 109
74 77 81 86 92 93 93 97 97 102 104 106 106 103 99 92 86 81 76 74 69 66 57 46 30 21 13 12 13 27 36 43 53 57 66 72 73 78 86 89 91 92 94 103 107 105 106
73 77 81 87 90 91 90 92 94 99 102 101 102 103 99 91 86 80 75 71 67 62 59 51 35 23 17 11 12 18 26 37 46 52 59 63 64 71 75 77 81 81 85 93 99 98 102
74 77 80 85 88 90 92 89 97 96 97 98 100 99 99 91 85 80 75 69 64 59 55 51 38 24 17 16 6 12 21 30 33 39 46 52 57 64 65 64 66 70 75 78 85 89 100
73 76 79 83 85 87 91 91 94 94 93 95 95 96 96 93 84 81 75 70 63 58 53 50 42 26 13 13 12 6 9 13 19 26 35 44 46 50 54 56 59 59 60 66 73 80 92
73 76 78 82 84 86 89 87 93 95 94 96 93 94 95 92 86 79 73 68 64 56 48 44 38 27 17 9 13 13 7 6 14 19 24 32 41 50 57 56 52 51 53 57 64 73 81
73 76 78 81 84 87 87 86 92 94 97 100 98 93 93 92 87 77 71 65 60 54 48 41 37 29 18 10 7 12 14 12 12 16 22 26 31 37 42 43 45 48 50 54 59 65 73
72 76 78 81 83 85 86 83 86 94 102 103 101 93 91 90 85 78 69 62 58 51 46 41 36 32 22 11 6 6 12 15 17 19 22 24 29 33 36 38 42 43 45 50 54 59 66
73 76 79 81 83 84 85 82 83 92 97 102 108 94 88 87 83 76 69 59 54 51 42 37 35 32 26 15 6 4 7 12 15 17 20 22 26 29 31 32 35 38 42 47 52 57 61
76 76 79 80 82 85 85 83 83 86 95 102 108 96 89 84 82 74 67 59 52 45 41 34 30 28 25 19 10 2 4 8 13 16 19 23 26 29 31 32 35 37 39 44 48 52 57
75 78 80 82 85 86 83 81 84 85 89 100 111 101 93 83 81 75 66 55 51 47 40 32 25 21 20 17 13 7 4 8 12 16 19 21 24 27 28 30 33 35 36 39 43 47 49
77 78 79 82 85 87 84 82 79 87 91 101 106 101 93 88 77 74 66 55 48 45 38 32 26 21 17 15 11 8 5 8 11 14 17 21 25 30 31 32 33 34 35 36 39 41 47
78 79 81 83 86 86 86 86 80 87 89 104 103 101 93 84 76 72 67 56 48 41 38 31 25 20 16 14 13 10 9 7 9 12 16 17 19 24 27 30 33 35 35 35 38 40 41
79 81 83 86 87 88 87 85 83 86 93 101 103 100 95 85 78 71 65 56 48 43 37 31 26 19 15 14 14 12 11 10 8 9 12 16 19 21 24 26 28 32 34 36 39 39 41
80 85 85 88 89 90 91 87 86 89 91 98 101 105 94 83 75 70 63 56 48 44 39 31 25 21 16 14 15 14 15 15 15 14 12 13 17 22 24 24 29 32 34 37 38 39 41
84 87 88 90 93 93 95 90 89 89 90 97 98 97 91 83 75 67 59 53 46 43 39 32 26 22 20 17 15 17 17 19 19 17 16 16 17 17 21 24 28 29 30 32 34 37 40
87 89 93 92 94 96 97 91 92 91 94 93 101 103 95 82 74 64 55 50 44 42 38 33 28 25 21 20 19 18 18 19 21 20 20 20 19 20 20 22 27 25 28 31 33 36 38
91 92 96 95 96 98 96 94 95 94 98 92 104 103 94 82 72 65 56 47 42 40 38 33 29 27 24 22 21 22 20 21 22 23 24 24 22 22 24 24 23 24 27 28 29 30 32
95 96 98 98 100 102 101 99 97 96 94 103 106 105 95 78 68 62 54 47 40 38 38 33 29 28 26 26 24 24 23 24 23 25 26 28 26 24 25 26 27 25 26 28 28 29 30
Wind_Direction
343 344 344 347 347 346 345 343 343 346 352 354 351 348 346 345 344 341 338 333 323 306 294 281 265 253 236 223 220 220 213 213 212 210 210 209 212 213 212 213 213 214 215 212 213 215 217
342 343 344 347 346 347 345 343 343 345 351 354 353 350 349 349 347 346 343 340 331 316 303 285 263 246 229 213 219 216 214 212 211 209 209 209 211 214 213 213 214 215 215 213 213 214 216
341 342 345 346 347 346 346 344 343 344 351 357 355 353 353 352 351 350 348 345 341 339 330 300 265 248 226 214 215 212 214 212 211 209 207 208 211 214 216 213 214 216 216 214 213 213 216
340 342 344 345 347 346 346 344 343 345 349 355 355 354 355 356 355 355 354 352 352 352 346 325 280 247 223 212 213 210 212 210 210 209 208 208 210 213 216 215 214 215 217 216 215 213 214
338 341 343 344 347 346 344 343 343 344 347 351 356 355 357 358 359 360 359 358 359 357 350 341 304 244 215 209 209 210 211 210 207 209 209 209 210 211 216 217 216 215 218 217 217 214 215
337 340 343 344 347 347 345 344 343 344 346 351 355 355 358 359 1 2 2 3 4 0 353 351 336 254 218 208 207 206 209 211 208 207 209 209 211 211 215 218 219 218 218 218 219 217 217
336 340 343 345 346 347 346 346 344 344 346 348 355 356 357 0 1 4 3 6 7 6 3 2 360 306 202 209 205 207 207 210 210 207 209 210 214 213 211 215 219 219 218 217 218 218 220
335 339 343 344 346 346 347 347 345 344 345 348 352 357 356 360 2 3 4 8 10 9 10 11 13 30 192 199 200 205 208 210 210 209 210 211 212 213 213 215 219 220 221 219 219 220 219
335 340 342 343 345 347 348 346 346 345 346 347 351 357 357 360 2 3 4 7 11 12 17 12 20 45 131 187 193 195 202 210 211 212 212 210 213 215 216 217 219 221 222 222 219 221 222
336 338 341 344 346 347 349 347 348 347 346 348 352 357 358 359 1 4 4 6 10 13 15 10 21 55 75 174 191 193 198 205 211 213 210 210 213 215 218 218 220 219 222 224 222 222 222
334 337 340 343 345 348 350 349 350 350 347 349 351 355 359 359 2 2 5 6 8 14 12 15 23 33 83 128 188 198 200 205 209 214 214 214 214 216 219 220 220 220 223 225 226 226 225
331 336 339 342 343 348 349 349 352 352 351 350 350 354 358 359 1 1 4 7 6 14 12 16 25 35 50 115 171 193 203 212 215 216 215 215 213 217 221 224 224 224 223 225 227 228 228
330 335 338 341 342 346 348 353 355 356 353 352 351 353 355 360 0 1 1 7 6 11 15 15 23 38 47 77 148 185 202 210 215 221 220 219 219 218 221 223 226 226 225 227 227 227 229
328 333 335 339 339 343 347 349 356 355 357 353 351 352 352 358 360 359 358 3 9 10 14 14 17 28 57 58 91 174 192 202 214 219 223 226 225 223 225 223 225 226 227 226 228 226 225
326 329 333 336 338 342 346 348 355 357 355 355 351 352 350 354 359 358 357 357 6 10 11 15 12 15 49 74 79 89 186 199 216 212 213 226 229 227 228 228 227 229 228 227 228 228 228
323 326 330 333 338 342 346 348 355 358 357 353 352 352 350 351 355 357 356 354 359 6 11 12 14 13 20 68 105 105 129 179 200 213 217 218 217 220 225 228 229 231 228 229 227 228 229
321 324 328 331 337 342 345 348 353 360 357 355 352 352 350 349 351 355 356 352 355 359 6 9 12 13 22 41 86 127 140 150 178 204 207 216 222 223 222 224 228 229 230 228 228 228 228
318 322 327 330 336 341 342 349 355 359 0 357 353 353 349 348 348 351 355 352 350 355 0 3 7 12 13 33 77 134 152 156 167 178 195 205 211 218 221 223 224 225 227 226 226 227 228
317 321 323 328 333 338 340 345 353 2 1 359 356 351 350 346 346 348 350 352 348 350 355 359 1 5 8 10 35 107 167 176 180 182 186 190 196 203 206 211 218 221 223 223 224 225 226
314 318 320 326 330 336 339 343 350 360 359 356 357 352 348 346 342 345 347 347 346 348 348 354 358 357 359 358 358 14 173 192 196 195 196 195 195 200 205 210 213 216 220 223 224 222 223
310 314 319 325 329 333 337 341 347 357 359 357 358 352 346 345 342 342 342 344 343 344 345 347 353 352 350 347 342 326 242 208 209 212 208 209 207 205 207 210 210 212 214 220 223 224 221
308 313 319 324 326 330 333 340 346 354 355 354 354 352 347 343 343 341 337 339 340 340 342 340 342 346 344 344 328 309 278 243 222 213 218 217 216 213 210 208 210 211 207 210 215 216 221
307 313 318 322 324 329 333 338 344 349 352 353 353 350 345 343 340 338 335 333 334 336 337 335 334 335 331 328 322 309 294 261 245 236 225 219 223 224 219 213 211 214 216 216 215 216 216
308 312 317 320 324 327 331 336 342 347 350 352 352 349 346 341 339 337 332 330 330 331 332 330 329 325 317 313 301 297 281 271 258 249 245 239 227 225 225 225 224 223 220 221 223 220 221
309 311 315 318 323 326 329 335 340 342 351 350 350 352 344 340 337 335 330 327 326 326 326 328 323 318 311 297 288 282 274 267 257 251 239 237 236 230 229 228 232 231 228 225 223 223 222
307 310 315 318 321 324 327 334 335 339 348 350 347 348 343 340 336 332 329 325 323 323 322 321 318 311 303 295 279 271 268 267 260 258 258 254 245 237 229 228 230 232 233 232 230 228 227
307 311 313 317 319 322 324 331 336 338 343 347 350 348 342 338 335 330 327 323 321 319 317 315 311 306 299 294 284 272 264 263 261 258 256 260 261 249 242 236 236 231 231 232 232 231 230
306 309 311 315 318 319 323 329 332 337 341 343 347 348 341 338 337 330 325 323 320 315 313 309 307 301 296 289 279 274 268 260 258 255 253 253 257 259 251 247 247 238 233 233 233 233 231
305 308 311 313 315 318 322 325 330 333 339 341 343 346 343 337 336 333 327 325 321 313 309 305 302 294 287 283 278 271 266 261 258 256 251 250 254 257 257 249 245 244 238 233 234 236 235
Height
10765 10753 10739 10725 10708 10695 10676 10657 10638 10623 10613 10598 10576 10555 10537 10517 10500 10482 10465 10448 10432 10417 10406 10401 10399 10402 10411 10424 10431 10438 10455 10463 10476 10495 10514 10528 10545 10563 10582 10597 10612 10633 10649 10666 10664 10679 10704
10760 10747 10734 10719 10700 10688 10669 10649 10629 10613 10605 10591 10569 10548 10528 10508 10488 10469 10449 10430 10413 10399 10389 10383 10380 10382 10389 10395 10398 10422 10434 10445 10465 10481 10497 10514 10529 10543 10559 10578 10600 10619 10630 10641 10656 10681 10695
10755 10742 10728 10713 10698 10680 10664 10643 10620 10601 10592 10580 10561 10540 10519 10498 10478 10457 10437 10416 10398 10385 10375 10369 10364 10364 10372 10382 10388 10403 10418 10435 10449 10463 10480 10500 10511 10528 10546 10566 10585 10600 10610 10626 10651 10670 10687
10749 10738 10724 10707 10692 10673 10658 10636 10611 10593 10578 10569 10551 10532 10513 10491 10471 10449 10428 10406 10386 10374 10363 10355 10350 10351 10357 10365 10371 10388 10398 10416 10433 10451 10470 10483 10495 10513 10530 10551 10569 10587 10597 10619 10645 10661 10673
10744 10732 10720 10704 10688 10670 10650 10630 10607 10586 10570 10553 10541 10521 10505 10483 10462 10444 10423 10400 10380 10366 10354 10347 10342 10342 10344 10350 10360 10374 10384 10402 10420 10440 10456 10469 10485 10502 10516 10537 10555 10572 10588 10617 10629 10651 10658
10738 10727 10716 10699 10684 10665 10644 10626 10604 10581 10562 10546 10533 10511 10496 10475 10454 10436 10419 10398 10378 10364 10351 10341 10335 10335 10338 10342 10352 10364 10378 10394 10412 10429 10443 10461 10474 10493 10510 10530 10551 10575 10589 10607 10622 10640 10646
10734 10723 10711 10697 10680 10663 10641 10622 10599 10577 10558 10540 10528 10508 10487 10469 10449 10432 10415 10396 10379 10364 10351 10340 10333 10332 10334 10340 10349 10359 10371 10386 10404 10423 10438 10454 10472 10498 10515 10520 10536 10549 10563 10581 10597 10617 10627
10730 10719 10708 10692 10677 10660 10638 10619 10598 10574 10555 10538 10524 10509 10487 10468 10449 10430 10416 10397 10382 10368 10356 10345 10338 10335 10337 10342 10350 10362 10375 10386 10401 10419 10429 10450 10474 10480 10496 10509 10524 10539 10558 10576 10588 10605 10618
10727 10716 10704 10690 10674 10658 10637 10615 10594 10574 10551 10534 10522 10510 10488 10471 10453 10434 10416 10402 10387 10375 10361 10353 10345 10341 10341 10344 10351 10361 10376 10385 10398 10412 10429 10451 10464 10475 10488 10502 10517 10532 10548 10559 10577 10594 10614
10725 10714 10699 10687 10672 10655 10638 10614 10593 10573 10552 10536 10524 10510 10489 10472 10455 10439 10421 10406 10393 10379 10369 10360 10354 10351 10350 10351 10356 10363 10372 10385 10396 10405 10422 10441 10454 10468 10481 10494 10506 10522 10536 10551 10569 10583 10601
10721 10710 10697 10685 10670 10656 10638 10615 10594 10573 10554 10538 10521 10508 10496 10472 10461 10446 10430 10414 10401 10386 10380 10372 10362 10358 10357 10359 10364 10369 10375 10383 10393 10404 10424 10439 10454 10464 10472 10480 10494 10511 10529 10544 10556 10570 10586
10716 10707 10694 10681 10668 10657 10639 10616 10594 10574 10558 10539 10522 10509 10496 10479 10464 10452 10438 10422 10410 10393 10386 10379 10371 10366 10365 10365 10368 10374 10378 10385 10393 10405 10419 10431 10444 10456 10466 10477 10492 10507 10526 10534 10545 10563 10573
10712 10704 10692 10679 10666 10654 10639 10620 10597 10578 10558 10540 10524 10508 10495 10484 10467 10455 10443 10431 10418 10406 10392 10386 10379 10376 10373 10374 10375 10380 10385 10390 10398 10407 10419 10429 10442 10452 10459 10473 10484 10503 10516 10526 10538 10556 10573
10707 10699 10689 10679 10664 10651 10637 10621 10601 10579 10560 10543 10525 10511 10497 10484 10471 10458 10448 10437 10426 10415 10403 10392 10386 10382 10379 10380 10382 10386 10391 10396 10403 10410 10416 10427 10438 10448 10458 10469 10481 10492 10504 10519 10530 10546 10555
10703 10694 10684 10676 10664 10651 10636 10622 10604 10582 10563 10546 10529 10514 10496 10486 10475 10459 10447 10437 10430 10421 10410 10401 10394 10391 10387 10384 10385 10389 10394 10400 10404 10412 10420 10426 10434 10443 10453 10462 10471 10485 10498 10507 10518 10529 10533
10698 10689 10680 10671 10662 10649 10636 10619 10603 10584 10564 10547 10531 10516 10499 10486 10476 10464 10451 10440 10430 10424 10419 10411 10405 10399 10393 10390 10389 10390 10393 10398 10404 10409 10416 10421 10429 10438 10446 10455 10467 10477 10487 10496 10504 10512 10521
10692 10683 10676 10666 10658 10647 10634 10619 10599 10584 10566 10548 10533 10518 10503 10488 10478 10470 10456 10444 10434 10426 10421 10417 10412 10407 10402 10398 10394 10394 10396 10399 10404 10409 10413 10419 10426 10433 10440 10452 10460 10467 10473 10481 10489 10497 10505
10685 10677 10669 10661 10653 10644 10632 10619 10601 10581 10566 10549 10535 10520 10503 10489 10479 10469 10461 10448 10436 10430 10420 10416 10412 10407 10404 10402 10399 10397 10397 10399 10403 10407 10412 10417 10423 10428 10436 10443 10449 10456 10463 10470 10478 10484 10493
10676 10670 10661 10655 10647 10639 10628 10616 10601 10582 10565 10550 10537 10519 10504 10490 10478 10467 10458 10451 10441 10428 10423 10416 10411 10407 10404 10403 10402 10401 10400 10401 10404 10407 10411 10415 10420 10424 10430 10435 10441 10448 10453 10459 10466 10474 10484
10667 10663 10655 10648 10640 10633 10622 10611 10597 10580 10565 10549 10533 10518 10506 10492 10477 10467 10457 10446 10441 10435 10424 10417 10412 10407 10404 10403 10402 10401 10401 10402 10403 10405 10409 10413 10416 10420 10426 10431 10436 10440 10445 10449 10456 10464 10472
10659 10653 10648 10639 10631 10625 10616 10606 10592 10577 10564 10549 10534 10517 10503 10492 10476 10466 10454 10447 10437 10430 10425 10420 10414 10410 10406 10403 10402 10401 10401 10401 10402 10404 10406 10410 10413 10417 10420 10424 10429 10433 10438 10442 10447 10455 10465
10650 10644 10639 10631 10623 10617 10608 10598 10585 10573 10563 10547 10530 10515 10500 10487 10475 10462 10453 10442 10435 10428 10423 10417 10411 10408 10406 10405 10404 10402 10401 10401 10402 10402 10404 10407 10409 10413 10416 10420 10424 10427 10430 10434 10439 10445 10452
10638 10633 10629 10621 10613 10607 10597 10590 10578 10568 10556 10543 10526 10510 10494 10481 10469 10458 10449 10440 10432 10425 10420 10415 10410 10405 10402 10401 10400 10400 10400 10400 10399 10399 10400 10402 10404 10407 10411 10414 10418 10421 10425 10429 10433 10439 10445
10627 10622 10618 10609 10603 10594 10588 10581 10571 10560 10549 10534 10521 10506 10490 10479 10465 10453 10441 10434 10426 10419 10415 10411 10407 10405 10400 10398 10396 10396 10397 10397 10397 10397 10397 10398 10400 10402 10404 10408 10411 10414 10418 10422 10426 10432 10435
10615 10608 10605 10596 10590 10584 10577 10570 10560 10553 10544 10530 10514 10501 10487 10473 10458 10446 10436 10426 10419 10412 10407 10404 10402 10400 10397 10395 10393 10391 10392 10393 10394 10395 10396 10395 10395 10396 10399 10401 10403 10407 10411 10415 10419 10424 10427
10600 10593 10590 10584 10577 10572 10565 10560 10549 10542 10537 10524 10509 10494 10479 10466 10450 10438 10429 10420 10412 10405 10400 10397 10394 10393 10391 10390 10389 10388 10387 10387 10388 10390 10391 10392 10393 10394 10394 10396 10397 10400 10404 10408 10411 10415 10418
10584 10580 10574 10572 10564 10557 10553 10549 10541 10528 10521 10514 10498 10485 10468 10456 10441 10430 10421 10412 10405 10398 10393 10388 10386 10384 10383 10382 10382 10381 10381 10381 10382 10384 10385 10386 10387 10388 10389 10389 10390 10395 10396 10399 10402 10406 10410
10566 10566 10558 10556 10550 10545 10538 10535 10529 10520 10511 10502 10490 10476 10462 10448 10435 10423 10412 10403 10396 10390 10385 10381 10377 10375 10374 10374 10373 10373 10374 10374 10375 10377 10378 10380 10380 10382 10383 10383 10385 10388 10389 10393 10396 10399 10402
10551 10550 10542 10540 10536 10529 10522 10520 10514 10509 10503 10491 10479 10466 10454 10435 10421 10410 10400 10393 10385 10381 10377 10374 10369 10367 10366 10365 10364 10365 10365 10366 10367 10368 10371 10372 10374 10375 10376 10378 10378 10381 10383 10386 10389 10391 10394